YMA903 YBBN-YSSY

Flight info

Callsign YMA903
Flight time N/A
Altitude 40000
Route SANEG H91 IGDAM H652 BOREE
Aircraft A339/H-SADE1E2E3GHIJ3J5M1P2RWXY/LB2D1

Departure

Time N/A
Airport Brisbane International Airport (YBBN)

Arrival

Time 2026-05-04 10:06
Airport Sydney Kingsford Smith International Airport (YSSY)
Time Latitude Longitude Altitude Speed Heading
2026-05-04 09:34 -31.84182 151.20873 40016 ft 444 kts 215°
2026-05-04 09:34 -31.87058 151.19578 39192 ft 447 kts 216°
2026-05-04 09:34 -31.90013 151.18245 37888 ft 454 kts 216°
2026-05-04 09:34 -31.93004 151.16877 36415 ft 464 kts 215°
2026-05-04 09:35 -31.96072 151.15483 35286 ft 463 kts 214°
2026-05-04 09:35 -31.99052 151.14149 34124 ft 465 kts 214°
2026-05-04 09:35 -32.02080 151.12790 32698 ft 473 kts 213°
2026-05-04 09:35 -32.05179 151.11388 31216 ft 483 kts 212°
2026-05-04 09:37 -32.26841 151.01674 25188 ft 461 kts 208°
2026-05-04 09:37 -32.29845 151.00322 24763 ft 455 kts 207°
2026-05-04 09:38 -32.32840 150.98973 24347 ft 450 kts 207°
2026-05-04 09:38 -32.35781 150.97646 23949 ft 445 kts 207°
2026-05-04 09:38 -32.38654 150.96349 23558 ft 440 kts 207°
2026-05-04 09:38 -32.41487 150.95068 23178 ft 435 kts 207°
2026-05-04 09:39 -32.44403 150.93745 22775 ft 430 kts 206°
2026-05-04 09:39 -32.47291 150.92469 22370 ft 429 kts 203°
2026-05-04 09:39 -32.50231 150.91753 21946 ft 435 kts 190°
2026-05-04 09:39 -32.53296 150.91774 21521 ft 439 kts 178°
2026-05-04 09:40 -32.56324 150.92269 21115 ft 438 kts 175°
2026-05-04 09:40 -32.59313 150.92838 20711 ft 435 kts 174°
2026-05-04 09:40 -32.62315 150.93413 20307 ft 433 kts 174°
2026-05-04 09:40 -32.65274 150.93967 19903 ft 430 kts 174°
2026-05-04 09:41 -32.68221 150.94504 19490 ft 428 kts 174°
2026-05-04 09:42 -32.88480 150.98110 16765 ft 412 kts 174°
2026-05-04 09:43 -32.91310 150.98614 16374 ft 410 kts 174°
2026-05-04 09:43 -32.94107 150.99113 16012 ft 408 kts 174°
2026-05-04 09:43 -32.96928 150.99618 15626 ft 405 kts 174°
2026-05-04 09:43 -32.99684 151.00113 15254 ft 402 kts 175°
2026-05-04 09:44 -33.02443 151.00605 14880 ft 400 kts 174°
2026-05-04 09:44 -33.05193 151.01097 14489 ft 398 kts 175°
2026-05-04 09:44 -33.07979 151.01595 14098 ft 396 kts 175°
2026-05-04 09:46 -33.26582 151.04951 11496 ft 377 kts 174°
2026-05-04 09:46 -33.29165 151.05450 11124 ft 375 kts 173°
2026-05-04 09:46 -33.31729 151.05947 10765 ft 372 kts 173°
2026-05-04 09:47 -33.34286 151.06438 10404 ft 370 kts 173°
2026-05-04 09:47 -33.36813 151.06926 10183 ft 362 kts 174°
2026-05-04 09:49 -33.52650 151.09970 9144 ft 313 kts 174°
2026-05-04 09:49 -33.54806 151.10385 8864 ft 312 kts 174°
2026-05-04 09:49 -33.56961 151.10800 8578 ft 311 kts 174°
2026-05-04 09:51 -33.69567 151.13385 8007 ft 307 kts 161°
2026-05-04 09:51 -33.71405 151.14719 8010 ft 311 kts 137°
2026-05-04 09:51 -33.72922 151.16551 8019 ft 310 kts 132°
2026-05-04 09:51 -33.74405 151.18486 8008 ft 309 kts 131°
2026-05-04 09:52 -33.75853 151.20365 8009 ft 308 kts 132°
2026-05-04 09:52 -33.77330 151.22242 8010 ft 309 kts 133°
2026-05-04 09:52 -33.78827 151.24122 8024 ft 309 kts 133°
2026-05-04 09:52 -33.80309 151.25968 8008 ft 310 kts 133°
2026-05-04 09:53 -33.81837 151.27808 8006 ft 310 kts 140°
2026-05-04 09:53 -33.83653 151.29181 7953 ft 306 kts 159°
2026-05-04 09:53 -33.85663 151.29910 7689 ft 303 kts 170°
2026-05-04 09:53 -33.87743 151.30418 7388 ft 303 kts 172°
2026-05-04 09:54 -33.89824 151.30900 7111 ft 302 kts 171°
2026-05-04 09:54 -33.91877 151.31397 6873 ft 301 kts 171°
2026-05-04 09:54 -33.93909 151.31911 6620 ft 300 kts 170°
2026-05-04 09:54 -33.95954 151.32440 6376 ft 300 kts 170°
2026-05-04 09:55 -33.97983 151.32968 6145 ft 298 kts 169°
2026-05-04 09:55 -34.00004 151.33497 5907 ft 297 kts 169°
2026-05-04 09:55 -34.02033 151.34030 5646 ft 296 kts 169°
2026-05-04 09:55 -34.04032 151.34555 5410 ft 296 kts 169°
2026-05-04 09:56 -34.06051 151.35085 5171 ft 295 kts 169°
2026-05-04 09:56 -34.08041 151.35608 4934 ft 294 kts 169°
2026-05-04 09:56 -34.10049 151.36141 4709 ft 293 kts 169°
2026-05-04 09:56 -34.12020 151.36663 4469 ft 292 kts 169°
2026-05-04 09:57 -34.14014 151.37188 4220 ft 291 kts 169°
2026-05-04 09:57 -34.15980 151.37702 3987 ft 290 kts 169°
2026-05-04 09:57 -34.17947 151.38212 3748 ft 289 kts 168°
2026-05-04 09:57 -34.19940 151.38468 3485 ft 286 kts 190°
2026-05-04 09:58 -34.21739 151.37689 3354 ft 271 kts 220°
2026-05-04 09:58 -34.22947 151.36079 3203 ft 250 kts 250°
2026-05-04 09:58 -34.23518 151.34123 2976 ft 232 kts 261°
2026-05-04 10:00 -34.18753 151.25992 2014 ft 152 kts 332°
2026-05-04 10:00 -34.17848 151.25348 2012 ft 151 kts 334°
2026-05-04 10:02 -34.10714 151.22903 2014 ft 150 kts 347°
2026-05-04 10:04 -34.03526 151.21054 1316 ft 151 kts 348°
2026-05-04 10:04 -34.02520 151.20793 1111 ft 144 kts 348°
2026-05-04 10:04 -34.01551 151.20542 924 ft 139 kts 348°
2026-05-04 10:04 -34.00590 151.20292 753 ft 140 kts 349°
2026-05-04 10:05 -33.99618 151.20040 567 ft 139 kts 349°
2026-05-04 10:05 -33.98662 151.19792 383 ft 139 kts 350°
2026-05-04 10:05 -33.97710 151.19546 199 ft 137 kts 350°
2026-05-04 10:05 -33.96794 151.19308 41 ft 132 kts 347°
2026-05-04 10:06 -33.96017 151.19108 40 ft 94 kts 348°
2026-05-04 10:06 -33.95553 151.18987 40 ft 45 kts 347°
2026-05-04 10:06 -33.95327 151.18877 40 ft 30 kts 329°
2026-05-04 10:08 -33.95150 151.18249 39 ft 11 kts 257°
2026-05-04 10:08 -33.95156 151.18218 39 ft 0 kts 256°
2026-05-04 10:08 -33.95159 151.18207 39 ft 3 kts 257°
2026-05-04 10:08 -33.95167 151.18161 39 ft 14 kts 257°
2026-05-04 10:09 -33.95188 151.18031 39 ft 15 kts 269°
2026-05-04 10:09 -33.95117 151.17948 39 ft 16 kts 347°
2026-05-04 10:09 -33.94948 151.17905 39 ft 37 kts 348°
2026-05-04 10:09 -33.94746 151.17851 39 ft 13 kts 347°
2026-05-04 10:10 -33.94682 151.17833 39 ft 3 kts 346°
2026-05-04 10:10 -33.94677 151.17831 39 ft 2 kts 346°
2026-05-04 10:10 -33.94610 151.17813 39 ft 17 kts 348°
2026-05-04 10:10 -33.94488 151.17782 39 ft 18 kts 347°
2026-05-04 10:11 -33.94369 151.17746 39 ft 17 kts 345°
2026-05-04 10:11 -33.94257 151.17709 39 ft 13 kts 344°
2026-05-04 10:11 -33.94195 151.17688 39 ft 5 kts 343°
2026-05-04 10:11 -33.94187 151.17685 39 ft 0 kts 343°
2026-05-04 10:14 -33.94184 151.17684 39 ft 1 kts 343°
2026-05-04 10:16 -33.93611 151.17535 39 ft 14 kts 347°
2026-05-04 10:16 -33.93555 151.17520 39 ft 10 kts 348°
2026-05-04 10:16 -33.93389 151.17498 39 ft 25 kts 354°
2026-05-04 10:16 -33.93236 151.17466 39 ft 18 kts 348°
2026-05-04 10:17 -33.93170 151.17450 39 ft 0 kts 348°
2026-05-04 10:19 -33.93120 151.17761 40 ft 0 kts 189°